Time,TemperatureF,DewpointF,PressureIn,WindDirection,WindDirectionDegrees,WindSpeedMPH,WindSpeedGustMPH,Humidity,HourlyPrecipIn,Conditions,Clouds,dailyrainin,SoftwareType,DateUTC
2013-06-17 00:02:00,71.0,68.0,30.02,NNE,27,0.0,-999.0,90,-99.99,,,-99.99,,2013-06-17 10:02:00,
2013-06-17 00:11:00,71.0,68.0,30.02,NNE,27,0.0,-999.0,90,-99.99,,,-99.99,,2013-06-17 10:11:00,
2013-06-17 00:22:00,72.0,69.0,30.02,NNE,27,0.0,-999.0,90,-99.99,,,-99.99,,2013-06-17 10:22:00,
2013-06-17 00:33:00,72.0,69.0,30.02,NNE,27,0.0,-999.0,90,-99.99,,,-99.99,,2013-06-17 10:33:00,
2013-06-17 00:42:00,72.0,69.0,30.02,NNE,27,0.0,-999.0,90,-99.99,,,-99.99,,2013-06-17 10:42:00,
2013-06-17 00:53:00,71.0,68.0,30.01,NNE,26,0.0,-999.0,91,-99.99,,,-99.99,,2013-06-17 10:53:00,
2013-06-17 01:01:00,71.0,68.0,30.01,NNE,27,0.0,-999.0,91,-99.99,,,-99.99,,2013-06-17 11:01:00,
2013-06-17 01:11:00,71.0,68.0,30.01,NNE,27,0.0,-999.0,91,-99.99,,,-99.99,,2013-06-17 11:11:00,
2013-06-17 01:23:00,71.0,68.0,30.01,NNE,30,0.0,-999.0,90,-99.99,,,-99.99,,2013-06-17 11:23:00,
2013-06-17 01:33:00,72.0,68.0,30.00,ESE,123,0.0,-999.0,88,-99.99,,,-99.99,,2013-06-17 11:33:00,
2013-06-17 01:43:00,72.0,68.0,30.00,ESE,123,0.0,-999.0,88,-99.99,,,-99.99,,2013-06-17 11:43:00,
2013-06-17 01:53:00,72.0,69.0,29.99,NNE,17,0.0,-999.0,89,-99.99,,,-99.99,,2013-06-17 11:53:00,
2013-06-17 02:02:00,72.0,69.0,29.99,ENE,69,0.0,-999.0,91,-99.99,,,-99.99,,2013-06-17 12:02:00,
2013-06-17 02:11:00,72.0,69.0,29.99,ENE,69,0.0,-999.0,91,-99.99,,,-99.99,,2013-06-17 12:11:00,
2013-06-17 02:22:00,71.0,68.0,29.99,ENE,70,0.0,-999.0,91,-99.99,,,-99.99,,2013-06-17 12:22:00,
2013-06-17 02:33:00,71.0,68.0,29.98,ENE,70,0.0,-999.0,91,-99.99,,,-99.99,,2013-06-17 12:33:00,
2013-06-17 02:43:00,71.0,68.0,29.98,ENE,70,0.0,-999.0,91,-99.99,,,-99.99,,2013-06-17 12:43:00,
2013-06-17 02:53:00,71.0,68.0,29.98,NE,46,0.0,-999.0,90,-99.99,,,-99.99,,2013-06-17 12:53:00,
2013-06-17 03:01:00,71.0,68.0,29.98,NE,46,0.0,-999.0,90,-99.99,,,-99.99,,2013-06-17 13:01:00,
2013-06-17 03:11:00,71.0,68.0,29.98,ESE,117,0.0,-999.0,91,-99.99,,,-99.99,,2013-06-17 13:11:00,
2013-06-17 03:22:00,70.0,68.0,29.99,ESE,112,0.0,-999.0,92,-99.99,,,-99.99,,2013-06-17 13:22:00,
2013-06-17 03:32:00,70.0,68.0,29.98,ESE,112,0.0,-999.0,93,-99.99,,,-99.99,,2013-06-17 13:32:00,
2013-06-17 03:43:00,70.0,68.0,29.98,ESE,112,0.0,-999.0,93,-99.99,,,-99.99,,2013-06-17 13:43:00,
2013-06-17 03:52:00,69.0,67.0,29.99,ESE,112,0.0,-999.0,93,-99.99,,,-99.99,,2013-06-17 13:52:00,
2013-06-17 04:02:00,69.0,67.0,29.99,ESE,112,0.0,-999.0,94,-99.99,,,-99.99,,2013-06-17 14:02:00,
2013-06-17 04:11:00,69.0,67.0,29.99,ESE,112,0.0,-999.0,94,-99.99,,,-99.99,,2013-06-17 14:11:00,
2013-06-17 04:21:00,69.0,68.0,29.99,ESE,112,0.0,-999.0,95,-99.99,,,-99.99,,2013-06-17 14:21:00,
2013-06-17 04:34:00,69.0,68.0,29.99,ESE,112,0.0,-999.0,95,-99.99,,,-99.99,,2013-06-17 14:34:00,
2013-06-17 04:43:00,69.0,68.0,29.99,ESE,112,0.0,-999.0,95,-99.99,,,-99.99,,2013-06-17 14:43:00,
2013-06-17 04:53:00,69.0,68.0,29.99,ESE,112,0.0,-999.0,95,-99.99,,,-99.99,,2013-06-17 14:53:00,
2013-06-17 05:01:00,69.0,68.0,30.00,ESE,112,0.0,-999.0,95,-99.99,,,-99.99,,2013-06-17 15:01:00,
2013-06-17 05:11:00,69.0,68.0,30.00,ESE,112,0.0,-999.0,95,-99.99,,,-99.99,,2013-06-17 15:11:00,
2013-06-17 05:22:00,69.0,68.0,30.01,ESE,112,0.0,-999.0,95,-99.99,,,-99.99,,2013-06-17 15:22:00,
2013-06-17 05:33:00,69.0,68.0,30.01,ESE,112,0.0,-999.0,96,-99.99,,,-99.99,,2013-06-17 15:33:00,
2013-06-17 05:43:00,69.0,68.0,30.01,ESE,112,0.0,-999.0,96,-99.99,,,-99.99,,2013-06-17 15:43:00,
2013-06-17 05:52:00,69.0,68.0,30.01,ESE,112,0.0,-999.0,96,-99.99,,,-99.99,,2013-06-17 15:52:00,
2013-06-17 06:02:00,69.0,68.0,30.02,ESE,112,0.0,-999.0,96,-99.99,,,-99.99,,2013-06-17 16:02:00,
2013-06-17 06:11:00,69.0,68.0,30.02,ESE,112,0.0,-999.0,96,-99.99,,,-99.99,,2013-06-17 16:11:00,
2013-06-17 06:22:00,69.0,68.0,30.03,ESE,112,0.0,-999.0,96,-99.99,,,-99.99,,2013-06-17 16:22:00,
2013-06-17 06:33:00,69.0,68.0,30.04,ESE,112,0.0,-999.0,96,-99.99,,,-99.99,,2013-06-17 16:33:00,
2013-06-17 06:43:00,69.0,68.0,30.04,ESE,112,0.0,-999.0,96,-99.99,,,-99.99,,2013-06-17 16:43:00,
2013-06-17 06:53:00,69.0,68.0,30.04,ESE,112,0.0,-999.0,96,-99.99,,,-99.99,,2013-06-17 16:53:00,
2013-06-17 07:02:00,69.0,68.0,30.05,ESE,112,0.0,-999.0,97,-99.99,,,-99.99,,2013-06-17 17:02:00,
2013-06-17 07:11:00,69.0,68.0,30.05,ESE,112,0.0,-999.0,97,-99.99,,,-99.99,,2013-06-17 17:11:00,
2013-06-17 07:22:00,69.0,68.0,30.05,ESE,112,0.0,-999.0,97,-99.99,,,-99.99,,2013-06-17 17:22:00,
2013-06-17 07:33:00,70.0,69.0,30.05,ESE,112,0.0,-999.0,97,-99.99,,,-99.99,,2013-06-17 17:33:00,
2013-06-17 07:43:00,70.0,69.0,30.05,ESE,112,0.0,-999.0,97,-99.99,,,-99.99,,2013-06-17 17:43:00,
2013-06-17 07:52:00,70.0,69.0,30.05,ESE,112,0.0,-999.0,97,-99.99,,,-99.99,,2013-06-17 17:52:00,
2013-06-17 08:01:00,71.0,70.0,30.05,ESE,112,0.0,-999.0,96,-99.99,,,-99.99,,2013-06-17 18:01:00,
2013-06-17 08:11:00,71.0,70.0,30.05,ESE,112,0.0,-999.0,96,-99.99,,,-99.99,,2013-06-17 18:11:00,
2013-06-17 08:23:00,72.0,70.0,30.06,ESE,112,0.0,-999.0,95,-99.99,,,-99.99,,2013-06-17 18:23:00,
2013-06-17 08:33:00,73.0,71.0,30.06,ESE,112,0.0,-999.0,92,-99.99,,,-99.99,,2013-06-17 18:33:00,
2013-06-17 08:42:00,73.0,71.0,30.06,ESE,112,0.0,-999.0,92,-99.99,,,-99.99,,2013-06-17 18:42:00,
2013-06-17 08:53:00,74.0,71.0,30.06,ESE,112,0.0,-999.0,89,-99.99,,,-99.99,,2013-06-17 18:53:00,
2013-06-17 09:02:00,74.0,69.0,30.06,ESE,112,0.0,-999.0,85,-99.99,,,-99.99,,2013-06-17 19:02:00,
2013-06-17 09:11:00,74.0,69.0,30.06,ESE,112,0.0,-999.0,85,-99.99,,,-99.99,,2013-06-17 19:11:00,
2013-06-17 09:22:00,75.0,69.0,30.06,ENE,70,0.0,-999.0,83,-99.99,,,-99.99,,2013-06-17 19:22:00,
2013-06-17 09:33:00,75.0,69.0,30.06,ENE,69,0.0,-999.0,82,-99.99,,,-99.99,,2013-06-17 19:33:00,
2013-06-17 09:43:00,75.0,69.0,30.06,ENE,69,0.0,-999.0,82,-99.99,,,-99.99,,2013-06-17 19:43:00,
2013-06-17 09:53:00,75.0,69.0,30.05,North,5,0.0,-999.0,82,-99.99,,,-99.99,,2013-06-17 19:53:00,
2013-06-17 10:01:00,76.0,70.0,30.05,North,360,0.0,-999.0,81,-99.99,,,-99.99,,2013-06-17 20:01:00,
2013-06-17 10:11:00,76.0,70.0,30.05,North,360,0.0,-999.0,81,-99.99,,,-99.99,,2013-06-17 20:11:00,
2013-06-17 10:22:00,79.0,70.0,30.05,SE,145,1.0,-999.0,75,-99.99,,,-99.99,,2013-06-17 20:22:00,
2013-06-17 10:33:00,79.0,70.0,30.05,SE,145,1.0,-999.0,75,-99.99,,,-99.99,,2013-06-17 20:33:00,
2013-06-17 10:43:00,78.0,69.0,30.05,NNE,13,4.0,-999.0,75,-99.99,,,-99.99,,2013-06-17 20:43:00,
2013-06-17 10:52:00,78.0,70.0,30.05,NNE,19,4.0,-999.0,76,-99.99,,,-99.99,,2013-06-17 20:52:00,
2013-06-17 11:01:00,78.0,69.0,30.05,NNE,16,2.0,-999.0,75,-99.99,,,-99.99,,2013-06-17 21:01:00,
2013-06-17 11:12:00,78.0,69.0,30.05,NNE,16,2.0,-999.0,75,-99.99,,,-99.99,,2013-06-17 21:12:00,
2013-06-17 11:22:00,77.0,70.0,30.05,North,9,2.0,-999.0,80,-99.99,,,-99.99,,2013-06-17 21:22:00,
2013-06-17 11:33:00,78.0,69.0,30.04,North,5,2.0,-999.0,73,-99.99,,,-99.99,,2013-06-17 21:33:00,
2013-06-17 11:43:00,78.0,69.0,30.04,North,5,2.0,-999.0,73,-99.99,,,-99.99,,2013-06-17 21:43:00,
2013-06-17 11:52:00,78.0,69.0,30.04,North,5,2.0,-999.0,73,-99.99,,,-99.99,,2013-06-17 21:52:00,
2013-06-17 12:01:00,80.0,69.0,30.04,North,5,2.0,-999.0,70,-99.99,,,-99.99,,2013-06-17 22:01:00,
2013-06-17 12:11:00,79.0,70.0,30.04,North,355,2.0,-999.0,74,-99.99,,,-99.99,,2013-06-17 22:11:00,
2013-06-17 12:22:00,79.0,70.0,30.03,NW,321,3.0,-999.0,73,-99.99,,,-99.99,,2013-06-17 22:22:00,
2013-06-17 12:33:00,79.0,69.0,30.03,NE,42,2.0,-999.0,71,-99.99,,,-99.99,,2013-06-17 22:33:00,
2013-06-17 12:43:00,79.0,69.0,30.03,NE,42,2.0,-999.0,71,-99.99,,,-99.99,,2013-06-17 22:43:00,
2013-06-17 12:53:00,80.0,70.0,30.03,SE,132,2.0,-999.0,72,-99.99,,,-99.99,,2013-06-17 22:53:00,
2013-06-17 13:02:00,80.0,71.0,30.03,NNE,13,4.0,-999.0,74,-99.99,,,-99.99,,2013-06-17 23:02:00,
2013-06-17 13:11:00,80.0,71.0,30.03,NNE,13,4.0,-999.0,74,-99.99,,,-99.99,,2013-06-17 23:11:00,
2013-06-17 13:22:00,80.0,69.0,30.02,NNE,24,3.0,-999.0,70,-99.99,,,-99.99,,2013-06-17 23:22:00,
2013-06-17 13:32:00,79.0,70.0,30.01,NE,49,3.0,-999.0,75,-99.99,,,-99.99,,2013-06-17 23:32:00,
2013-06-17 13:42:00,79.0,70.0,30.01,NE,49,3.0,-999.0,75,-99.99,,,-99.99,,2013-06-17 23:42:00,
2013-06-17 13:53:00,79.0,69.0,30.01,NE,46,3.0,-999.0,72,-99.99,,,-99.99,,2013-06-17 23:53:00,
2013-06-17 14:01:00,80.0,71.0,30.01,NNE,29,3.0,-999.0,73,-99.99,,,-99.99,,2013-06-18 00:01:00,
2013-06-17 14:12:00,80.0,71.0,30.01,NNE,29,3.0,-999.0,73,-99.99,,,-99.99,,2013-06-18 00:12:00,
2013-06-17 14:22:00,80.0,71.0,30.01,ENE,78,3.0,-999.0,73,-99.99,,,-99.99,,2013-06-18 00:22:00,
2013-06-17 14:32:00,80.0,71.0,30.01,ENE,78,3.0,-999.0,73,-99.99,,,-99.99,,2013-06-18 00:32:00,
2013-06-17 14:43:00,80.0,71.0,30.01,NE,44,4.0,-999.0,74,-99.99,,,-99.99,,2013-06-18 00:43:00,
2013-06-17 14:52:00,81.0,71.0,30.01,NE,48,4.0,-999.0,71,-99.99,,,-99.99,,2013-06-18 00:52:00,
2013-06-17 15:01:00,81.0,71.0,30.01,NE,48,4.0,-999.0,71,-99.99,,,-99.99,,2013-06-18 01:01:00,
2013-06-17 15:11:00,81.0,70.0,30.01,North,5,4.0,-999.0,69,-99.99,,,-99.99,,2013-06-18 01:11:00,
2013-06-17 15:23:00,79.0,70.0,30.01,North,10,3.0,-999.0,73,-99.99,,,-99.99,,2013-06-18 01:23:00,
2013-06-17 15:33:00,79.0,70.0,30.01,NNE,26,4.0,-999.0,74,-99.99,,,-99.99,,2013-06-18 01:33:00,
2013-06-17 15:44:00,79.0,70.0,30.01,NNE,26,4.0,-999.0,74,-99.99,,,-99.99,,2013-06-18 01:44:00,
2013-06-17 15:53:00,79.0,70.0,30.01,North,355,3.0,-999.0,75,-99.99,,,-99.99,,2013-06-18 01:53:00,
2013-06-17 16:02:00,78.0,70.0,30.01,ENE,63,3.0,-999.0,77,-99.99,,,-99.99,,2013-06-18 02:02:00,
2013-06-17 16:11:00,78.0,70.0,30.01,ENE,63,3.0,-999.0,77,-99.99,,,-99.99,,2013-06-18 02:11:00,
2013-06-17 16:22:00,77.0,70.0,30.01,North,360,3.0,-999.0,79,-99.99,,,-99.99,,2013-06-18 02:22:00,
2013-06-17 16:33:00,77.0,70.0,30.00,NNE,29,3.0,-999.0,78,-99.99,,,-99.99,,2013-06-18 02:33:00,
2013-06-17 16:43:00,77.0,70.0,30.00,NNE,29,3.0,-999.0,78,-99.99,,,-99.99,,2013-06-18 02:43:00,
2013-06-17 16:53:00,76.0,69.0,30.00,NNE,13,4.0,-999.0,80,-99.99,,,-99.99,,2013-06-18 02:53:00,
2013-06-17 17:02:00,76.0,69.0,30.01,NNW,329,2.0,-999.0,80,-99.99,,,-99.99,,2013-06-18 03:02:00,
2013-06-17 17:11:00,76.0,69.0,30.01,NNW,329,2.0,-999.0,80,-99.99,,,-99.99,,2013-06-18 03:11:00,
2013-06-17 17:23:00,75.0,69.0,30.01,NE,39,1.0,-999.0,81,-99.99,,,-99.99,,2013-06-18 03:23:00,
2013-06-17 17:33:00,75.0,69.0,30.02,NNW,348,3.0,-999.0,82,-99.99,,,-99.99,,2013-06-18 03:33:00,
2013-06-17 17:42:00,75.0,69.0,30.02,NNW,348,3.0,-999.0,82,-99.99,,,-99.99,,2013-06-18 03:42:00,
2013-06-17 17:53:00,75.0,69.0,30.03,NNE,33,2.0,-999.0,82,-99.99,,,-99.99,,2013-06-18 03:53:00,
2013-06-17 18:01:00,75.0,69.0,30.03,NE,36,1.0,-999.0,81,-99.99,,,-99.99,,2013-06-18 04:01:00,
2013-06-17 18:11:00,75.0,69.0,30.03,NE,36,1.0,-999.0,81,-99.99,,,-99.99,,2013-06-18 04:11:00,
2013-06-17 18:22:00,75.0,69.0,30.03,NNE,33,1.0,-999.0,83,-99.99,,,-99.99,,2013-06-18 04:22:00,
2013-06-17 18:33:00,75.0,69.0,30.03,NNE,33,1.0,-999.0,83,-99.99,,,-99.99,,2013-06-18 04:33:00,
2013-06-17 18:42:00,75.0,69.0,30.03,NNE,33,1.0,-999.0,83,-99.99,,,-99.99,,2013-06-18 04:42:00,
2013-06-17 18:53:00,75.0,69.0,30.03,NNE,33,1.0,-999.0,83,-99.99,,,-99.99,,2013-06-18 04:53:00,
2013-06-17 19:02:00,73.0,68.0,30.05,NE,35,2.0,-999.0,83,-99.99,,,-99.99,,2013-06-18 05:02:00,
2013-06-17 19:12:00,73.0,68.0,30.05,NE,35,2.0,-999.0,83,-99.99,,,-99.99,,2013-06-18 05:12:00,
2013-06-17 19:22:00,73.0,69.0,30.06,NNE,23,2.0,-999.0,86,-99.99,,,-99.99,,2013-06-18 05:22:00,
2013-06-17 19:33:00,71.0,67.0,30.06,NNE,24,0.0,-999.0,88,-99.99,,,-99.99,,2013-06-18 05:33:00,
2013-06-17 19:43:00,71.0,67.0,30.06,NNE,24,0.0,-999.0,88,-99.99,,,-99.99,,2013-06-18 05:43:00,
2013-06-17 19:53:00,71.0,69.0,30.06,NNE,18,0.0,-999.0,92,-99.99,,,-99.99,,2013-06-18 05:53:00,
2013-06-17 20:02:00,70.0,68.0,30.06,NNE,18,0.0,-999.0,93,-99.99,,,-99.99,,2013-06-18 06:02:00,
2013-06-17 20:11:00,70.0,68.0,30.06,NNE,18,0.0,-999.0,93,-99.99,,,-99.99,,2013-06-18 06:11:00,
2013-06-17 20:23:00,70.0,68.0,30.07,NNE,18,0.0,-999.0,93,-99.99,,,-99.99,,2013-06-18 06:23:00,
2013-06-17 20:32:00,70.0,68.0,30.07,NNE,18,0.0,-999.0,93,-99.99,,,-99.99,,2013-06-18 06:32:00,
2013-06-17 20:43:00,70.0,68.0,30.07,NNE,18,0.0,-999.0,94,-99.99,,,-99.99,,2013-06-18 06:43:00,
2013-06-17 20:53:00,70.0,68.0,30.07,NNE,18,0.0,-999.0,94,-99.99,,,-99.99,,2013-06-18 06:53:00,
2013-06-17 21:02:00,70.0,68.0,30.07,NNE,18,0.0,-999.0,94,-99.99,,,-99.99,,2013-06-18 07:02:00,
2013-06-17 21:12:00,70.0,68.0,30.07,NNE,18,0.0,-999.0,95,-99.99,,,-99.99,,2013-06-18 07:12:00,
2013-06-17 21:22:00,69.0,68.0,30.08,NNE,18,0.0,-999.0,95,-99.99,,,-99.99,,2013-06-18 07:22:00,
2013-06-17 21:32:00,69.0,68.0,30.09,NNE,18,0.0,-999.0,95,-99.99,,,-99.99,,2013-06-18 07:32:00,
2013-06-17 21:42:00,69.0,68.0,30.09,NNE,18,0.0,-999.0,95,-99.99,,,-99.99,,2013-06-18 07:42:00,
2013-06-17 21:52:00,69.0,68.0,30.09,NNE,18,0.0,-999.0,96,-99.99,,,-99.99,,2013-06-18 07:52:00,
2013-06-17 22:01:00,69.0,68.0,30.09,NNE,18,0.0,-999.0,96,-99.99,,,-99.99,,2013-06-18 08:01:00,
2013-06-17 22:11:00,69.0,68.0,30.09,NNE,18,0.0,-999.0,96,-99.99,,,-99.99,,2013-06-18 08:11:00,
2013-06-17 22:22:00,69.0,68.0,30.09,NNE,18,0.0,-999.0,96,-99.99,,,-99.99,,2013-06-18 08:22:00,
2013-06-17 22:32:00,69.0,68.0,30.09,NNE,18,0.0,-999.0,96,-99.99,,,-99.99,,2013-06-18 08:32:00,
2013-06-17 22:43:00,68.0,67.0,30.09,NNE,18,0.0,-999.0,96,-99.99,,,-99.99,,2013-06-18 08:43:00,
2013-06-17 22:52:00,68.0,67.0,30.09,NNE,18,0.0,-999.0,96,-99.99,,,-99.99,,2013-06-18 08:52:00,
2013-06-17 23:01:00,68.0,67.0,30.09,NNE,18,0.0,-999.0,97,-99.99,,,-99.99,,2013-06-18 09:01:00,
2013-06-17 23:11:00,68.0,67.0,30.09,NNE,18,0.0,-999.0,97,-99.99,,,-99.99,,2013-06-18 09:11:00,
2013-06-17 23:21:00,67.0,66.0,30.09,NNE,18,0.0,-999.0,97,-99.99,,,-99.99,,2013-06-18 09:21:00,
2013-06-17 23:33:00,67.0,66.0,30.09,NNE,18,0.0,-999.0,97,-99.99,,,-99.99,,2013-06-18 09:33:00,
2013-06-17 23:42:00,67.0,66.0,30.08,NNE,18,0.0,-999.0,97,-99.99,,,-99.99,,2013-06-18 09:42:00,
2013-06-17 23:53:00,68.0,67.0,30.08,NNE,18,0.0,-999.0,97,-99.99,,,-99.99,,2013-06-18 09:53:00,